Location: Bodest
(46.3000°N, 22.5667°E)
Time: 01:09:10
(UTC+00:00)

Cosmos 1605 Rocket - Pass Details

Date: 16 October 2021
Orbit: 945 x 1005 km, 82.9° (Epoch: 02 December)

Event Time Altitude Azimuth Distance (km) Brightness Sun altitude
Rises 17:04:29 0° 159° (SSE) 3,642 6.8 -15.1°
Reaches altitude 10° 17:07:09 10° 151° (SSE) 2,709 6.0 -15.6°
Maximum altitude 17:12:43 36° 87° (E) 1,515 4.5 -16.5°
Drops below altitude 10° 17:18:22 10° 24° (NNE) 2,763 6.2 -17.5°
Sets 17:21:06 0° 16° (NNE) 3,724 6.9 -18.0°
